GW3703 Weather Reports


time (UTC)temp
C
wind
direction
speed
KPH
gust
KPH
rain 1hr
cm
rain 24hr
cm
rain mn
cm
humidity
%
barometer
mb
20260506200055 30 0 3.2 17.7 0.00 0.03 0.00 72 1008.1
20260506194633 30 244 9.7 16.1 0.00 0.03 0.00 74 1008.2
20260506193104 30 250 6.4 17.7 0.00 0.03 0.00 75 1008.4
20260506191601 28 241 8.0 16.1 0.00 0.03 0.00 77 1008.6
20260506190109 28 277 6.4 16.1 0.00 0.03 0.00 79 1008.8
20260506184557 28 274 6.4 17.7 0.00 0.03 0.00 76 1008.9
20260506183055 28 134 3.2 12.9 0.00 0.03 0.00 74 1009.1
20260506181554 29 138 1.6 12.9 0.00 0.03 0.00 77 1009.2
20260506180105 28 170 0.0 14.5 0.00 0.03 0.00 78 1009.4
20260506174556 27 248 3.2 12.9 0.00 0.05 0.00 81 1009.6
20260506173058 27 0 1.6 8.0 0.00 0.05 0.00 82 1009.9
20260506171557 27 163 3.2 9.7 0.00 0.05 0.00 82 1010.0
20260506170105 27 247 3.2 11.3 0.00 0.05 0.00 81 1010.0
20260506164553 27 0 3.2 9.7 0.00 0.05 0.00 82 1009.9
20260506163111 26 250 4.8 9.7 0.00 0.05 0.00 83 1009.7
20260506161556 26 0 1.6 11.3 0.00 0.05 0.00 85 1009.6
20260506160055 26 244 1.6 6.4 0.00 0.05 0.00 85 1009.3
20260506154610 25 246 4.8 9.7 0.00 0.05 0.00 85 1009.3
20260506153107 25 250 6.4 14.5 0.00 0.05 0.00 85 1009.1
20260506151558 26 250 6.4 16.1 0.00 0.05 0.00 85 1008.9
20260506150053 26 264 4.8 12.9 0.00 0.05 0.00 85 1008.8
20260506144555 25 263 4.8 12.9 0.00 0.05 0.00 87 1008.6
20260506143103 25 228 6.4 16.1 0.00 0.05 0.00 87 1008.4
20260506141551 25 247 8.0 17.7 0.00 0.05 0.00 88 1008.3
20260506140057 25 248 4.8 14.5 0.00 0.05 0.00 88 1008.3
20260506134554 25 234 6.4 16.1 0.00 0.05 0.00 89 1008.2
20260506133057 24 243 6.4 17.7 0.00 0.05 0.00 89 1008.2
20260506131557 24 249 4.8 11.3 0.00 0.05 0.00 90 1008.3
20260506130053 23 231 4.8 12.9 0.00 0.05 0.00 90 1008.2
20260506124552 23 255 3.2 8.0 0.00 0.05 0.00 90 1008.3
20260506123052 23 249 3.2 11.3 0.00 0.05 0.00 90 1008.1
20260506121553 23 275 3.2 8.0 0.00 0.05 0.00 90 1008.1
20260506120059 23 0 1.6 8.0 0.00 0.05 0.00 90 1008.1
20260506114604 23 247 3.2 6.4 0.00 0.05 0.00 90 1008.0
20260506113057 23 265 0.0 6.4 0.00 0.05 0.00 90 1008.0
20260506111559 23 251 3.2 11.3 0.00 0.05 0.00 90 1007.8
20260506110103 23 245 4.8 11.3 0.00 0.05 0.00 90 1007.8
20260506104603 23 251 1.6 8.0 0.00 0.05 0.00 89 1007.9
20260506103109 23 248 3.2 9.7 0.00 0.05 0.00 89 1007.6
20260506101605 23 263 4.8 14.5 0.00 0.05 0.00 89 1007.6
20260506100057 23 265 6.4 12.9 0.00 0.05 0.00 89 1007.6
20260506094621 23 254 8.0 14.5 0.00 0.05 0.00 89 1007.5
20260506093101 23 267 9.7 17.7 0.00 0.05 0.00 88 1007.5
20260506091558 23 259 8.0 12.9 0.00 0.05 0.00 88 1007.5
20260506090055 23 268 6.4 12.9 0.00 0.05 0.00 88 1007.5
20260506084552 23 0 0.0 1.6 0.00 0.08 0.00 88 1007.6
20260506083059 23 0 0.0 6.4 0.00 0.08 0.00 88 1007.6
20260506081554 24 246 3.2 6.4 0.00 0.08 0.00 87 1007.4
20260506073053 24 261 6.4 12.9 0.00 0.08 0.00 87 1007.8
20260506071557 24 277 1.6 12.9 0.00 0.08 0.00 87 1008.1
20260506070109 24 238 6.4 12.9 0.00 0.08 0.00 86 1008.2
20260506061557 25 242 8.0 16.1 0.00 0.08 0.00 86 1008.6
20260506044553 25 242 8.0 12.9 0.00 0.08 0.08 86 1008.5
20260506043051 25 253 6.4 14.5 0.00 0.08 0.08 86 1008.4
20260506041557 25 276 6.4 16.1 0.00 0.08 0.08 86 1008.2
20260506034604 24 253 9.7 17.7 0.00 0.08 0.08 86 1007.6
20260506033055 24 256 9.7 16.1 0.00 0.08 0.08 87 1007.5
20260506031600 24 242 11.3 20.9 0.03 0.08 0.08 86 1007.3
20260506030053 25 252 11.3 19.3 0.03 0.08 0.08 85 1007.2
20260506024558 25 243 9.7 19.3 0.03 0.08 0.08 84 1007.2
20260506023058 25 265 8.0 19.3 0.03 0.08 0.08 84 1007.0
20260506021600 25 286 12.9 20.9 0.00 0.05 0.05 84 1006.8
20260506014558 25 270 9.7 16.1 0.00 0.05 0.05 83 1006.8
20260506013056 25 259 8.0 14.5 0.00 0.05 0.05 83 1006.6
20260506011608 25 277 11.3 19.3 0.00 0.05 0.05 82 1006.2
20260506010059 26 287 9.7 17.7 0.00 0.05 0.05 82 1006.0
20260506004552 26 251 11.3 22.5 0.00 0.05 0.05 82 1005.9
20260506003053 26 263 11.3 24.1 0.00 0.05 0.05 81 1005.4
20260506001554 26 257 14.5 25.7 0.00 0.05 0.05 81 1005.5
20260506000053 26 255 14.5 30.6 0.00 0.05 0.05 79 1005.4
20260505234600 26 252 16.1 29.0 0.00 0.05 0.05 79 1005.4
20260505233108 27 254 16.1 27.4 0.00 0.05 0.05 79 1005.2
20260505231600 27 260 17.7 27.4 0.00 0.05 0.05 78 1005.3
20260505230057 27 251 16.1 29.0 0.00 0.05 0.05 77 1005.2
20260505224552 28 275 20.9 30.6 0.00 0.08 0.05 74 1005.4
20260505223058 28 277 19.3 30.6 0.00 0.08 0.05 76 1005.6
20260505221555 28 247 19.3 27.4 0.00 0.08 0.05 75 1005.6
20260505220100 28 269 12.9 22.5 0.00 0.08 0.05 74 1005.8
20260505214555 28 263 8.0 22.5 0.00 0.08 0.05 75 1005.9
20260505213055 28 244 14.5 24.1 0.00 0.08 0.05 74 1006.2
20260505211609 29 273 12.9 20.9 0.00 0.08 0.05 73 1006.3
20260505210054 28 240 11.3 27.4 0.00 0.08 0.05 75 1006.5
20260505204602 30 256 16.1 22.5 0.00 0.08 0.05 72 1006.6
20260505203058 29 268 16.1 25.7 0.00 0.08 0.05 73 1006.9
20260505201602 28 253 12.9 20.9 0.00 0.08 0.05 72 1007.1